Zurück zum Katalog

DMSP 5D-2 F14 DEB

AktivPO
NORAD 62937·DEBRIS·🇺🇸 United States

Gestartet Apr 4, 1997 von Vandenberg Space Force Base

Loading…

Nächste Überflüge (nächste 24 Stunden)

TLE

AktuellSource: Space-Track

Epoche: Sep 13, 2026, 17:58 UTC

1 62937U 97012H   26256.74903829  .00029180  00000-0  66319-2 0  9996
2 62937  99.0202 328.4662 0024913 144.4109 215.8754 14.55693018 90838

Verfolge DMSP 5D-2 F14 DEB in Echtzeit mit AllMySat

Download on the App Store